[[{"header":{"parameterUnit":"m.s-1","parameterCategory":1,"la1":30.2991,"la2":30.254,"lo1":-89.0895,"lo2":-89.0444,"dy":0.0017,"dx":0.0017,"nx":28,"ny":28,"refTime":"2023-08-23T21:00:00:Z","depth":0,"parameterNumber":2,"parameterNumberName":"U-component_of_WINDS"},"data":[0,0,0,0,0,0,0,0,0,0,0,0,0,0,0,0,0,0,0,0,0,0,0,0,0,0,0,0,0,0,0,0,0,0,0,0,0,0,0,0,0,0,0,0,0,0,0,0,0,0,0,0,0,0,0,0,0,0,-0.8316,-0.8316,0,-0.8309,-0.8309,-0.8309,-0.8302,-0.8302,-0.8302,-0.8302,-0.8294,-0.8294,-0.8294,0,0,0,0,0,0,0,0,0,0,0,0,0,-0.8325,-0.8325,-0.8316,-0.8316,-0.8316,-0.8309,-0.8309,-0.8309,-0.8302,-0.8302,-0.8302,-0.8302,-0.8294,-0.8294,-0.8294,0,0,0,0,0,0,0,0,0,0,0,0,0,-0.832,-0.8325,-0.8316,-0.8312,-0.8312,-0.8309,-0.8309,-0.8309,-0.8302,-0.8302,-0.8302,-0.8302,-0.8294,-0.8294,-0.8294,-0.8295,0,0,-0.8293,-0.8293,0,0,0,0,0,0,0,0,-0.832,-0.8319,-0.8313,-0.8312,-0.8312,-0.8306,-0.8309,-0.8304,-0.8302,-0.8306,-0.8302,-0.8302,-0.8298,-0.8298,-0.8297,-0.8295,-0.8294,-0.8293,-0.8293,-0.8293,-0.8293,0,0,0,0,0,0,0,-0.832,-0.832,-0.8313,-0.8313,-0.8312,-0.8311,-0.831,-0.8308,-0.8303,-0.8305,-0.8305,-0.8304,-0.8298,-0.8297,-0.8296,-0.8294,-0.8293,-0.8293,-0.8293,-0.8293,-0.8293,-0.8293,0,0,0,0,0,0,-0.8321,-0.832,-0.8314,-0.8313,-0.8316,-0.831,-0.831,-0.8308,-0.8303,-0.8302,-0.8304,-0.8304,-0.8297,-0.8297,-0.8296,-0.8297,-0.8293,-0.8293,-0.8293,-0.8293,-0.8293,-0.8293,0,0,0,0,0,0,-0.8322,-0.8321,-0.8314,-0.8316,-0.8315,-0.831,-0.8309,-0.8308,-0.8307,-0.8302,-0.8301,-0.8304,-0.8297,-0.8296,-0.8295,-0.8297,-0.8293,-0.8293,-0.8293,-0.8293,-0.8293,-0.8299,0,0,0,0,0,0,-0.8322,-0.8321,-0.8321,-0.8317,-0.8315,-0.8313,-0.8309,-0.8308,-0.8307,-0.8306,-0.8301,-0.8301,-0.8297,-0.8296,-0.8295,-0.8297,-0.8293,-0.8292,-0.8293,-0.8293,-0.8299,-0.83,-0.83,0,0,0,0,0,-0.8322,-0.8323,-0.8321,-0.8321,-0.8316,-0.8313,-0.8313,-0.8309,-0.8307,-0.8307,-0.8304,-0.8301,-0.8297,-0.8296,-0.8295,-0.8296,-0.8292,-0.8293,-0.8293,-0.8299,-0.8299,-0.83,0,0,0,0,0,0,-0.8328,-0.8322,-0.832,-0.832,-0.8317,-0.8312,-0.8312,-0.831,-0.8307,-0.8307,-0.8302,-0.8301,-0.8301,-0.8298,-0.8297,-0.8297,-0.8294,-0.8294,-0.8299,-0.83,-0.83,-0.8301,-0.8292,0,0,0,0,0,-0.8329,-0.8328,-0.8323,-0.8323,-0.8322,-0.8317,-0.8316,-0.8313,-0.831,-0.8309,-0.8306,-0.8303,-0.8301,-0.83,-0.8298,-0.8298,-0.8298,-0.8299,-0.83,-0.83,-0.8301,-0.8301,-0.8302,-0.8294,-0.8294,-0.8294,0,0,-0.8332,-0.8329,-0.8328,-0.8324,-0.8322,-0.8321,-0.8316,-0.8315,-0.8314,-0.8309,-0.8308,-0.8306,-0.8302,-0.8302,-0.8301,-0.83,-0.8303,-0.8301,-0.8301,-0.8301,-0.8301,-0.8302,-0.8303,-0.8294,-0.8294,-0.8294,0,0,-0.8336,-0.8333,-0.8333,-0.8331,-0.8327,-0.8324,-0.8324,-0.832,-0.8318,-0.8317,-0.8313,-0.8312,-0.8309,-0.8307,-0.8305,-0.8309,-0.8306,-0.8308,-0.8312,-0.8312,-0.8313,-0.8314,-0.8315,-0.8316,-0.8309,-0.8309,-0.8309,0,-0.8339,-0.8337,-0.8333,-0.8332,-0.8331,-0.8326,-0.8326,-0.8324,-0.832,-0.8319,-0.8318,-0.8314,-0.8311,-0.8311,-0.8312,-0.831,-0.8311,-0.8309,-0.8313,-0.8314,-0.8314,-0.8316,-0.8316,-0.8309,-0.8309,-0.8309,-0.8309,0,-0.8342,-0.8341,-0.8341,-0.8337,-0.8336,-0.8335,-0.8331,-0.8331,-0.8328,-0.8325,-0.8325,-0.8321,-0.8319,-0.8318,-0.8316,-0.8318,-0.8317,-0.8314,-0.8311,-0.8315,-0.8317,-0.8317,-0.831,-0.8309,-0.8309,-0.8309,0,0,-0.8349,-0.8343,-0.8344,-0.8342,-0.8338,-0.8337,-0.8337,-0.8334,-0.8334,-0.8331,-0.8331,-0.8329,-0.8327,-0.8325,-0.8322,-0.8323,-0.8326,-0.832,-0.832,-0.8322,-0.8328,-0.8331,-0.8331,-0.8324,-0.8324,-0.8324,-0.8329,0,-0.8352,-0.8351,-0.8348,-0.8348,-0.8347,-0.8342,-0.8342,-0.834,-0.8337,-0.8336,-0.8334,-0.8332,-0.8329,-0.8328,-0.8329,-0.8326,-0.8328,-0.8325,-0.8324,-0.8324,-0.8325,-0.8332,-0.8334,-0.8338,-0.8329,-0.8329,-0.8329,0,-0.8356,-0.8354,-0.8354,-0.8351,-0.835,-0.835,-0.8348,-0.8347,-0.8344,-0.8342,-0.8341,-0.8338,-0.8337,-0.8334,-0.8334,-0.8332,-0.8332,-0.833,-0.833,-0.833,-0.8327,-0.8332,-0.834,-0.834,-0.833,-0.833,-0.833,0,-0.8362,-0.8359,-0.8359,-0.8358,-0.8353,-0.8353,-0.8352,-0.8349,-0.8348,-0.8346,-0.8346,-0.8344,-0.8343,-0.8341,-0.8338,-0.8336,-0.8338,-0.8335,-0.8337,-0.8337,-0.8338,-0.8338,-0.8345,-0.8337,-0.8337,-0.8337,-0.8337,0,-0.8366,-0.8366,-0.8361,-0.8361,-0.8361,-0.8358,-0.8358,-0.8356,-0.8354,-0.8353,-0.8349,-0.8349,-0.8344,-0.8344,-0.8341,-0.8341,-0.8341,-0.834,-0.8339,-0.834,-0.834,-0.834,-0.8339,-0.8337,-0.8337,-0.8337,-0.8337,0,-0.8372,-0.8369,-0.8368,-0.8365,-0.8364,-0.8364,-0.8361,-0.8361,-0.8359,-0.8358,-0.8358,-0.8354,-0.8353,-0.8349,-0.8347,-0.8346,-0.8347,-0.8345,-0.8348,-0.8347,-0.835,-0.835,-0.8357,-0.8358,-0.8349,-0.8349,-0.8349,0,-0.8375,-0.8375,-0.8372,-0.8371,-0.837,-0.8369,-0.8368,-0.8364,-0.8364,-0.8361,-0.8361,-0.836,-0.8359,-0.8357,-0.8354,-0.8353,-0.8352,-0.8355,-0.8351,-0.8353,-0.8352,-0.8352,-0.8353,-0.8355,-0.8355,-0.8355,-0.8356,0,-0.8381,-0.8379,-0.8378,-0.8377,-0.8376,-0.8375,-0.8373,-0.8373,-0.8369,-0.8368,-0.8367,-0.8366,-0.8364,-0.8363,-0.8362,-0.836,-0.8357,-0.8357,-0.8357,-0.8358,-0.836,-0.836,-0.835,-0.8356,-0.8356,-0.8356,-0.8356,-0.8356,-0.8386,-0.8386,-0.8384,-0.8383,-0.8381,-0.838,-0.838,-0.8378,-0.8377,-0.8375,-0.8373,-0.8372,-0.837,-0.8368,-0.8366,-0.8366,-0.8364,-0.8365,-0.8365,-0.8365,-0.8366,-0.836,-0.8365,-0.8365,-0.8365,-0.8365,-0.8365,0,-0.8392,-0.839,-0.8389,-0.8387,-0.8387,-0.8384,-0.8383,-0.8382,-0.8382,-0.838,-0.8379,-0.8378,-0.8377,-0.8375,-0.8374,-0.8374,-0.8373,-0.8374,-0.8374,-0.8374,-0.8367,-0.8367,-0.8375,-0.8375,-0.8375,-0.8375,-0.8375,-0.8375,-0.8395,-0.8395,-0.8393,-0.8393,-0.8392,-0.8391,-0.839,-0.8389,-0.8388,-0.8387,-0.8387,-0.8385,-0.8383,-0.8382,-0.8381,-0.838,-0.838,-0.8382,-0.838,-0.8375,-0.8374,-0.8373,-0.8373,-0.8381,-0.8381,-0.8387,-0.8387,-0.8387]},{"header":{"parameterUnit":"m.s-1","parameterCategory":1,"la1":30.2991,"la2":30.254,"lo1":-89.0895,"lo2":-89.0444,"dy":0.0017,"dx":0.0017,"nx":28,"ny":28,"refTime":"2023-08-23T21:00:00:Z","depth":0,"parameterNumber":3,"parameterNumberName":"V-component_of_WINDS"},"data":[0,0,0,0,0,0,0,0,0,0,0,0,0,0,0,0,0,0,0,0,0,0,0,0,0,0,0,0,0,0,0,0,0,0,0,0,0,0,0,0,0,0,0,0,0,0,0,0,0,0,0,0,0,0,0,0,0,0,0.1269,0.1269,0,0.1289,0.129,0.129,0.1301,0.1301,0.1302,0.1302,0.1321,0.1321,0.1322,0,0,0,0,0,0,0,0,0,0,0,0,0,0.1238,0.1238,0.1269,0.1269,0.1269,0.1289,0.129,0.129,0.1301,0.1301,0.1302,0.1302,0.1321,0.1321,0.1322,0,0,0,0,0,0,0,0,0,0,0,0,0,0.1254,0.1238,0.1269,0.1278,0.1279,0.1289,0.129,0.129,0.1301,0.1301,0.1302,0.1302,0.1321,0.1321,0.1322,0.1325,0,0,0.1324,0.1324,0,0,0,0,0,0,0,0,0.1253,0.1255,0.1276,0.1277,0.1278,0.1293,0.1286,0.1302,0.1301,0.1293,0.1302,0.1302,0.1311,0.1313,0.1317,0.1326,0.1327,0.1324,0.1325,0.1325,0.1325,0,0,0,0,0,0,0,0.1252,0.1254,0.1277,0.1276,0.1278,0.128,0.1282,0.1289,0.1301,0.1293,0.1294,0.1297,0.1312,0.1316,0.1317,0.1327,0.1324,0.1325,0.1325,0.1326,0.1339,0.1339,0,0,0,0,0,0,0.125,0.1253,0.1276,0.1278,0.1266,0.128,0.1283,0.1288,0.1301,0.1303,0.1297,0.1297,0.1315,0.1316,0.1318,0.1322,0.1325,0.1326,0.1326,0.1339,0.1339,0.1339,0,0,0,0,0,0,0.1249,0.1252,0.1276,0.1266,0.1269,0.1281,0.1286,0.1288,0.1292,0.1304,0.1306,0.1298,0.1315,0.1317,0.1323,0.1323,0.1326,0.1327,0.1339,0.1339,0.1339,0.1331,0,0,0,0,0,0,0.1248,0.1251,0.1253,0.1266,0.1269,0.1281,0.1286,0.1289,0.1294,0.1295,0.1306,0.1308,0.1315,0.1322,0.1324,0.1324,0.1327,0.1339,0.1339,0.1339,0.1331,0.133,0.133,0,0,0,0,0,0.1247,0.125,0.1253,0.1256,0.1272,0.1281,0.1283,0.1292,0.1294,0.1295,0.1302,0.1308,0.1323,0.1323,0.1325,0.1325,0.1339,0.1339,0.1339,0.1331,0.1331,0.133,0,0,0,0,0,0,0.1237,0.1252,0.1256,0.1263,0.1271,0.1283,0.1285,0.129,0.1298,0.1298,0.1308,0.131,0.1315,0.1321,0.1321,0.1328,0.1331,0.1332,0.1325,0.1324,0.1323,0.1322,0.1328,0,0,0,0,0,0.1235,0.1242,0.1254,0.1259,0.1263,0.1274,0.1278,0.1284,0.1292,0.1295,0.1303,0.131,0.1316,0.132,0.1327,0.1332,0.1334,0.1333,0.1332,0.1332,0.1332,0.1334,0.1334,0.1339,0.1339,0.1339,0,0,0.1232,0.1241,0.1245,0.1258,0.1264,0.127,0.1276,0.1283,0.1287,0.1296,0.1303,0.1308,0.1317,0.1322,0.1325,0.1327,0.1331,0.1331,0.1331,0.1331,0.1334,0.1334,0.1333,0.1339,0.1339,0.1339,0,0,0.123,0.1238,0.1243,0.125,0.126,0.1267,0.1268,0.1279,0.1283,0.129,0.1297,0.1302,0.1313,0.1318,0.1323,0.1322,0.1327,0.1324,0.132,0.1323,0.1322,0.1322,0.1321,0.1321,0.1324,0.1324,0.1324,0,0.1226,0.1236,0.1245,0.1251,0.1256,0.1264,0.1269,0.1274,0.1286,0.1289,0.1291,0.1304,0.1311,0.1318,0.1317,0.1321,0.1322,0.1323,0.1322,0.1321,0.1321,0.1321,0.1321,0.1323,0.1323,0.1323,0.1323,0,0.1229,0.1236,0.1238,0.125,0.1255,0.126,0.1269,0.1273,0.1278,0.1284,0.1291,0.1299,0.1307,0.1309,0.1313,0.1316,0.1317,0.132,0.1323,0.132,0.132,0.132,0.1323,0.1323,0.1323,0.1323,0,0,0.1222,0.1238,0.1239,0.1244,0.1255,0.126,0.1265,0.1273,0.1276,0.1284,0.1288,0.1296,0.1299,0.1304,0.131,0.1312,0.131,0.1315,0.1315,0.1314,0.1313,0.131,0.131,0.1313,0.1313,0.1313,0.1312,0,0.1222,0.1232,0.124,0.1247,0.1253,0.1261,0.1265,0.1272,0.1278,0.1283,0.1289,0.1295,0.1298,0.1301,0.1304,0.131,0.131,0.131,0.1317,0.1317,0.1315,0.131,0.1308,0.1307,0.1312,0.1312,0.1312,0,0.1223,0.123,0.1238,0.1248,0.1251,0.1255,0.1263,0.1268,0.1276,0.128,0.1285,0.129,0.1295,0.1298,0.1304,0.1304,0.1307,0.131,0.1311,0.1312,0.1315,0.1311,0.1306,0.1306,0.1312,0.1312,0.1312,0,0.1217,0.1229,0.1235,0.1239,0.1251,0.1253,0.1259,0.1266,0.1271,0.1277,0.128,0.1287,0.129,0.1295,0.1302,0.1303,0.1308,0.1311,0.1311,0.1311,0.1312,0.1312,0.1307,0.1313,0.1313,0.1313,0.1313,0,0.1216,0.1221,0.1232,0.1236,0.1241,0.1249,0.1254,0.1259,0.1266,0.1271,0.1277,0.1281,0.129,0.1295,0.13,0.1304,0.1306,0.1309,0.131,0.1308,0.1308,0.1311,0.1311,0.1313,0.1313,0.1313,0.1313,0,0.1211,0.1219,0.1226,0.1237,0.1239,0.1242,0.1251,0.1255,0.1261,0.1266,0.1268,0.1277,0.1282,0.129,0.1298,0.1301,0.1305,0.1307,0.1303,0.1304,0.1303,0.1303,0.1301,0.1301,0.1306,0.1306,0.1306,0,0.121,0.1213,0.1224,0.1228,0.1233,0.1239,0.1243,0.1251,0.1255,0.1264,0.1266,0.1273,0.1278,0.1287,0.1294,0.13,0.1302,0.1301,0.1303,0.1301,0.1302,0.1302,0.1302,0.13,0.13,0.13,0.13,0,0.1207,0.1211,0.1217,0.1225,0.123,0.1236,0.1242,0.1245,0.1254,0.1258,0.1264,0.1268,0.1276,0.1283,0.1289,0.1294,0.1298,0.1299,0.1299,0.1298,0.1295,0.1297,0.1301,0.1299,0.1299,0.1299,0.1299,0.1299,0.1204,0.1207,0.1216,0.1222,0.1228,0.1233,0.1237,0.1243,0.1249,0.1256,0.1261,0.1266,0.1273,0.1283,0.1287,0.1291,0.1293,0.1293,0.1294,0.1294,0.1293,0.1294,0.1293,0.1293,0.1293,0.1293,0.1293,0,0.1202,0.1207,0.1213,0.1222,0.1227,0.1231,0.1238,0.1242,0.1247,0.1253,0.1258,0.1265,0.1271,0.1278,0.1284,0.1286,0.1288,0.1287,0.1287,0.1288,0.1291,0.129,0.1285,0.1285,0.1285,0.1285,0.1285,0.1285,0.1201,0.1207,0.1211,0.122,0.1225,0.1232,0.1235,0.124,0.1245,0.1253,0.1257,0.1262,0.1268,0.1275,0.128,0.1282,0.1284,0.1282,0.1285,0.1287,0.1288,0.1289,0.1288,0.1282,0.1282,0.1281,0.1281,0.1281]}]]